| time (UTC) | temp C | wind direction | speed KPH | gust KPH | rain 1hr cm | rain 24hr cm | rain mn cm | humidity % | barometer mb |
| 20260506154558 | 13 | 310 | 4.8 | 8.0 | 0.00 | 2.84 | 0.69 | 58 | 1010.9 |
| 20260506154044 | 13 | 316 | 1.6 | 8.0 | 0.00 | 2.84 | 0.69 | 57 | 1010.9 |
| 20260506153548 | 13 | 316 | 4.8 | 8.0 | 0.00 | 2.84 | 0.69 | 58 | 1010.9 |
| 20260506153050 | 13 | 317 | 4.8 | 8.0 | 0.00 | 2.84 | 0.69 | 57 | 1011.0 |
| 20260506152550 | 12 | 320 | 4.8 | 14.5 | 0.00 | 2.84 | 0.69 | 59 | 1010.9 |
| 20260506152058 | 12 | 319 | 6.4 | 14.5 | 0.00 | 2.84 | 0.69 | 57 | 1011.0 |
| 20260506151602 | 13 | 305 | 3.2 | 11.3 | 0.00 | 2.84 | 0.69 | 60 | 1011.0 |
| 20260506151047 | 12 | 355 | 3.2 | 6.4 | 0.00 | 2.84 | 0.69 | 63 | 1010.9 |
| 20260506150548 | 12 | 355 | 3.2 | 6.4 | 0.00 | 2.84 | 0.69 | 61 | 1010.8 |
| 20260506150050 | 12 | 355 | 3.2 | 8.0 | 0.00 | 2.84 | 0.69 | 65 | 1010.6 |
| 20260506145554 | 12 | 355 | 3.2 | 8.0 | 0.00 | 2.84 | 0.69 | 64 | 1010.4 |
| 20260506145101 | 12 | 355 | 4.8 | 9.7 | 0.00 | 2.84 | 0.69 | 66 | 1010.5 |
| 20260506144546 | 12 | 355 | 1.6 | 8.0 | 0.00 | 2.84 | 0.69 | 70 | 1010.4 |
| 20260506144050 | 12 | 314 | 1.6 | 6.4 | 0.00 | 2.84 | 0.69 | 70 | 1010.4 |
| 20260506143554 | 11 | 313 | 3.2 | 6.4 | 0.00 | 2.84 | 0.69 | 71 | 1010.3 |
| 20260506143055 | 11 | 313 | 3.2 | 6.4 | 0.00 | 2.84 | 0.69 | 72 | 1010.2 |
| 20260506142558 | 11 | 313 | 1.6 | 11.3 | 0.00 | 2.84 | 0.69 | 72 | 1010.2 |
| 20260506142102 | 11 | 313 | 3.2 | 11.3 | 0.00 | 2.84 | 0.69 | 71 | 1010.2 |
| 20260506141546 | 11 | 287 | 4.8 | 9.7 | 0.00 | 2.84 | 0.69 | 71 | 1010.3 |
| 20260506141049 | 11 | 287 | 3.2 | 6.4 | 0.00 | 2.84 | 0.69 | 74 | 1010.3 |
| 20260506140549 | 11 | 286 | 3.2 | 8.0 | 0.00 | 2.84 | 0.69 | 75 | 1010.3 |
| 20260506140052 | 11 | 287 | 4.8 | 8.0 | 0.00 | 2.84 | 0.69 | 78 | 1010.4 |
| 20260506135556 | 10 | 287 | 1.6 | 4.8 | 0.00 | 2.84 | 0.69 | 80 | 1010.4 |
| 20260506135100 | 10 | 287 | 1.6 | 9.7 | 0.00 | 2.84 | 0.69 | 80 | 1010.3 |
| 20260506134544 | 10 | 287 | 3.2 | 9.7 | 0.00 | 2.84 | 0.69 | 81 | 1010.3 |
| 20260506134052 | 10 | 287 | 3.2 | 9.7 | 0.00 | 2.84 | 0.69 | 82 | 1010.2 |
| 20260506133600 | 9 | 287 | 1.6 | 9.7 | 0.00 | 2.84 | 0.69 | 85 | 1010.1 |
| 20260506133045 | 9 | 287 | 1.6 | 6.4 | 0.00 | 2.84 | 0.69 | 87 | 1009.9 |
| 20260506132549 | 8 | 287 | 1.6 | 4.8 | 0.00 | 2.84 | 0.69 | 88 | 1009.8 |
| 20260506132055 | 8 | 287 | 0.0 | 1.6 | 0.00 | 2.84 | 0.69 | 91 | 1009.9 |
| 20260506131600 | 8 | 287 | 0.0 | 4.8 | 0.00 | 2.84 | 0.69 | 91 | 1009.9 |
| 20260506131105 | 8 | 287 | 3.2 | 6.4 | 0.00 | 2.84 | 0.69 | 92 | 1009.6 |
| 20260506130546 | 8 | 287 | 0.0 | 6.4 | 0.00 | 2.84 | 0.69 | 93 | 1009.7 |
| 20260506130049 | 7 | 287 | 0.0 | 3.2 | 0.00 | 2.84 | 0.69 | 93 | 1009.6 |
| 20260506125555 | 7 | 286 | 0.0 | 4.8 | 0.00 | 2.84 | 0.69 | 94 | 1009.8 |
| 20260506125055 | 7 | 287 | 0.0 | 4.8 | 0.00 | 2.84 | 0.69 | 94 | 1009.6 |
| 20260506124558 | 7 | 288 | 0.0 | 6.4 | 0.00 | 2.84 | 0.69 | 94 | 1009.6 |
| 20260506124102 | 7 | 288 | 0.0 | 6.4 | 0.00 | 2.84 | 0.69 | 95 | 1009.3 |
| 20260506123546 | 7 | 288 | 0.0 | 3.2 | 0.00 | 2.84 | 0.69 | 95 | 1009.4 |
| 20260506123117 | 7 | 288 | 0.0 | 4.8 | 0.00 | 2.84 | 0.69 | 95 | 1009.3 |
| 20260506122559 | 7 | 288 | 1.6 | 4.8 | 0.00 | 2.84 | 0.69 | 95 | 1009.3 |
| 20260506122105 | 7 | 288 | 0.0 | 0.0 | 0.00 | 2.84 | 0.69 | 95 | 1009.2 |
| 20260506121549 | 7 | 288 | 0.0 | 0.0 | 0.00 | 2.84 | 0.69 | 95 | 1009.0 |
| 20260506121119 | 7 | 288 | 0.0 | 0.0 | 0.00 | 2.84 | 0.69 | 96 | 1009.0 |
| 20260506120602 | 6 | 288 | 0.0 | 3.2 | 0.00 | 2.84 | 0.69 | 95 | 1008.9 |
| 20260506120045 | 6 | 288 | 0.0 | 3.2 | 0.00 | 2.84 | 0.69 | 96 | 1008.9 |
| 20260506115549 | 6 | 288 | 0.0 | 3.2 | 0.00 | 2.84 | 0.69 | 96 | 1009.0 |
| 20260506115053 | 6 | 288 | 0.0 | 1.6 | 0.00 | 2.84 | 0.69 | 96 | 1008.7 |
| 20260506114554 | 6 | 288 | 0.0 | 1.6 | 0.00 | 2.84 | 0.69 | 96 | 1008.8 |
| 20260506114058 | 6 | 288 | 0.0 | 1.6 | 0.00 | 2.84 | 0.69 | 96 | 1008.8 |
| 20260506113602 | 6 | 288 | 0.0 | 1.6 | 0.00 | 2.84 | 0.69 | 96 | 1008.8 |
| 20260506113047 | 6 | 288 | 0.0 | 1.6 | 0.00 | 2.84 | 0.69 | 96 | 1008.9 |
| 20260506112550 | 6 | 288 | 0.0 | 3.2 | 0.00 | 2.84 | 0.69 | 96 | 1008.8 |
| 20260506112054 | 6 | 288 | 0.0 | 3.2 | 0.00 | 2.84 | 0.69 | 96 | 1008.9 |
| 20260506111600 | 6 | 288 | 0.0 | 3.2 | 0.00 | 2.84 | 0.69 | 96 | 1009.0 |
| 20260506111044 | 6 | 288 | 0.0 | 1.6 | 0.00 | 2.84 | 0.69 | 96 | 1008.7 |
| 20260506110608 | 6 | 288 | 0.0 | 1.6 | 0.00 | 2.84 | 0.69 | 96 | 1008.8 |
| 20260506110051 | 6 | 288 | 0.0 | 1.6 | 0.00 | 2.84 | 0.69 | 96 | 1008.5 |
| 20260506105556 | 6 | 288 | 0.0 | 0.0 | 0.00 | 2.84 | 0.69 | 96 | 1008.4 |
| 20260506105101 | 6 | 288 | 0.0 | 4.8 | 0.00 | 2.84 | 0.69 | 96 | 1008.0 |
| 20260506104548 | 6 | 288 | 1.6 | 4.8 | 0.00 | 2.84 | 0.69 | 96 | 1008.1 |
| 20260506104051 | 6 | 288 | 0.0 | 1.6 | 0.00 | 2.84 | 0.69 | 96 | 1008.0 |
| 20260506103618 | 6 | 288 | 0.0 | 1.6 | 0.00 | 2.84 | 0.69 | 96 | 1008.0 |
| 20260506103102 | 6 | 288 | 0.0 | 0.0 | 0.00 | 2.84 | 0.69 | 96 | 1007.7 |
| 20260506102545 | 6 | 288 | 0.0 | 0.0 | 0.00 | 2.84 | 0.69 | 96 | 1007.5 |
| 20260506102114 | 6 | 288 | 0.0 | 0.0 | 0.00 | 2.84 | 0.69 | 96 | 1007.5 |
| 20260506101622 | 6 | 288 | 0.0 | 0.0 | 0.00 | 2.84 | 0.69 | 96 | 1007.5 |
| 20260506101044 | 6 | 288 | 0.0 | 0.0 | 0.03 | 2.84 | 0.69 | 96 | 1007.5 |
| 20260506100547 | 6 | 288 | 0.0 | 0.0 | 0.03 | 2.84 | 0.69 | 96 | 1007.4 |
| 20260506100050 | 6 | 288 | 0.0 | 0.0 | 0.03 | 2.84 | 0.69 | 96 | 1007.5 |
| 20260506095553 | 6 | 288 | 0.0 | 0.0 | 0.03 | 2.84 | 0.69 | 96 | 1007.6 |
| 20260506095121 | 6 | 288 | 0.0 | 0.0 | 0.03 | 2.84 | 0.69 | 96 | 1007.3 |
| 20260506094544 | 6 | 288 | 0.0 | 0.0 | 0.05 | 2.84 | 0.69 | 96 | 1007.2 |
| 20260506094047 | 6 | 288 | 0.0 | 0.0 | 0.05 | 2.84 | 0.69 | 96 | 1007.5 |
| 20260506093547 | 6 | 288 | 0.0 | 0.0 | 0.05 | 2.84 | 0.69 | 96 | 1007.6 |
| 20260506093118 | 6 | 288 | 0.0 | 0.0 | 0.05 | 2.84 | 0.69 | 96 | 1007.8 |
| 20260506092600 | 6 | 288 | 0.0 | 0.0 | 0.05 | 2.84 | 0.69 | 96 | 1007.9 |
| 20260506092044 | 6 | 288 | 0.0 | 0.0 | 0.05 | 2.84 | 0.69 | 96 | 1008.0 |
| 20260506091546 | 6 | 288 | 0.0 | 0.0 | 0.05 | 2.84 | 0.69 | 96 | 1008.0 |
| 20260506091050 | 6 | 288 | 0.0 | 0.0 | 0.03 | 2.82 | 0.66 | 96 | 1007.9 |
| 20260506090556 | 6 | 288 | 0.0 | 0.0 | 0.03 | 2.82 | 0.66 | 96 | 1007.8 |
| 20260506085546 | 6 | 288 | 0.0 | 0.0 | 0.05 | 2.82 | 0.66 | 95 | 1007.6 |
| 20260506085048 | 6 | 288 | 0.0 | 0.0 | 0.05 | 2.82 | 0.66 | 95 | 1007.8 |
| 20260506084555 | 6 | 288 | 0.0 | 0.0 | 0.03 | 2.79 | 0.64 | 95 | 1007.8 |
| 20260506084058 | 6 | 288 | 0.0 | 0.0 | 0.03 | 2.79 | 0.64 | 95 | 1008.0 |
| 20260506083543 | 6 | 288 | 0.0 | 0.0 | 0.05 | 2.79 | 0.64 | 95 | 1008.1 |
| 20260506083047 | 6 | 288 | 0.0 | 0.0 | 0.08 | 2.79 | 0.64 | 95 | 1007.8 |
| 20260506082554 | 6 | 288 | 0.0 | 0.0 | 0.08 | 2.79 | 0.64 | 96 | 1007.9 |
| 20260506082120 | 6 | 288 | 0.0 | 0.0 | 0.10 | 2.79 | 0.64 | 96 | 1008.0 |
| 20260506081545 | 6 | 288 | 0.0 | 0.0 | 0.10 | 2.79 | 0.64 | 95 | 1007.7 |
| 20260506081050 | 6 | 288 | 0.0 | 0.0 | 0.10 | 2.79 | 0.64 | 96 | 1007.5 |
| 20260506080555 | 6 | 288 | 0.0 | 0.0 | 0.10 | 2.79 | 0.64 | 95 | 1007.4 |
| 20260506073042 | 7 | 288 | 0.0 | 0.0 | 0.13 | 2.74 | 0.58 | 95 | 1007.8 |
| 20260506072550 | 7 | 288 | 0.0 | 0.0 | 0.10 | 2.72 | 0.56 | 96 | 1008.1 |
| 20260506072054 | 7 | 288 | 0.0 | 0.0 | 0.08 | 2.69 | 0.53 | 96 | 1008.2 |
| 20260506071557 | 7 | 288 | 0.0 | 0.0 | 0.10 | 2.69 | 0.53 | 95 | 1008.2 |
| 20260506071059 | 6 | 288 | 0.0 | 0.0 | 0.10 | 2.69 | 0.53 | 95 | 1008.0 |
| 20260506070542 | 7 | 288 | 0.0 | 0.0 | 0.13 | 2.69 | 0.53 | 96 | 1008.0 |
| 20260506062046 | 7 | 288 | 1.6 | 6.4 | 0.23 | 2.62 | 0.46 | 96 | 1008.1 |
| 20260506061553 | 7 | 288 | 0.0 | 6.4 | 0.23 | 2.59 | 0.43 | 96 | 1008.0 |
| 20260506061058 | 8 | 288 | 3.2 | 6.4 | 0.23 | 2.59 | 0.43 | 96 | 1007.7 |
| 20260506060602 | 8 | 288 | 1.6 | 3.2 | 0.20 | 2.57 | 0.41 | 96 | 1007.6 |
| 20260506051054 | 8 | 288 | 0.0 | 0.0 | 0.18 | 2.36 | 0.20 | 96 | 1007.9 |
| 20260506050545 | 8 | 288 | 0.0 | 0.0 | 0.18 | 2.36 | 0.20 | 96 | 1007.9 |
| 20260506050115 | 8 | 288 | 0.0 | 0.0 | 0.18 | 2.34 | 0.18 | 96 | 1007.9 |
| 20260506045117 | 8 | 288 | 0.0 | 0.0 | 0.20 | 2.34 | 0.18 | 96 | 1007.7 |
| 20260506044619 | 8 | 288 | 0.0 | 0.0 | 0.20 | 2.31 | 0.15 | 96 | 1007.8 |
| 20260506044045 | 8 | 288 | 0.0 | 0.0 | 0.18 | 2.29 | 0.13 | 96 | 1007.8 |
| 20260506043549 | 8 | 288 | 0.0 | 0.0 | 0.20 | 2.29 | 0.13 | 96 | 1007.8 |
| 20260506043045 | 8 | 288 | 0.0 | 0.0 | 0.18 | 2.26 | 0.10 | 96 | 1007.8 |
| 20260506042105 | 8 | 288 | 0.0 | 0.0 | 0.15 | 2.21 | 0.05 | 96 | 1007.8 |
| 20260506041550 | 8 | 288 | 0.0 | 0.0 | 0.15 | 2.21 | 0.05 | 96 | 1007.9 |
| 20260506041044 | 8 | 288 | 0.0 | 0.0 | 0.15 | 2.18 | 0.03 | 96 | 1007.8 |
| 20260506040548 | 8 | 288 | 0.0 | 0.0 | 0.18 | 2.18 | 0.03 | 96 | 1007.7 |
| 20260506040117 | 8 | 288 | 0.0 | 0.0 | 0.18 | 2.16 | 2.16 | 96 | 1007.8 |
| 20260506035557 | 8 | 288 | 0.0 | 0.0 | 0.20 | 2.16 | 2.16 | 96 | 1007.8 |
| 20260506035042 | 8 | 288 | 0.0 | 0.0 | 0.20 | 2.13 | 2.13 | 95 | 1007.7 |
| 20260506034605 | 8 | 288 | 0.0 | 0.0 | 0.20 | 2.11 | 2.11 | 96 | 1007.9 |
| 20260506034050 | 8 | 288 | 0.0 | 0.0 | 0.23 | 2.11 | 2.11 | 95 | 1007.8 |
| 20260506033555 | 8 | 288 | 0.0 | 0.0 | 0.20 | 2.08 | 2.08 | 95 | 1007.8 |
| 20260506033059 | 8 | 288 | 0.0 | 0.0 | 0.23 | 2.08 | 2.08 | 95 | 1007.8 |
| 20260506032544 | 8 | 288 | 0.0 | 0.0 | 0.25 | 2.08 | 2.08 | 95 | 1007.7 |
| 20260506032113 | 8 | 288 | 0.0 | 0.0 | 0.23 | 2.06 | 2.06 | 95 | 1007.6 |
| 20260506031558 | 8 | 288 | 0.0 | 0.0 | 0.25 | 2.06 | 2.06 | 95 | 1007.8 |
| 20260506031043 | 8 | 288 | 0.0 | 0.0 | 0.25 | 2.03 | 2.03 | 95 | 1008.0 |
| 20260506030547 | 8 | 288 | 0.0 | 0.0 | 0.25 | 2.01 | 2.01 | 95 | 1008.1 |
| 20260506030053 | 8 | 288 | 0.0 | 0.0 | 0.25 | 1.98 | 1.98 | 95 | 1008.2 |
| 20260506025557 | 8 | 288 | 0.0 | 0.0 | 0.28 | 1.96 | 1.96 | 95 | 1008.3 |
| 20260506025101 | 8 | 288 | 0.0 | 0.0 | 0.28 | 1.93 | 1.93 | 95 | 1008.3 |
| 20260506024546 | 8 | 288 | 0.0 | 0.0 | 0.28 | 1.91 | 1.91 | 95 | 1008.3 |
| 20260506024046 | 8 | 288 | 0.0 | 0.0 | 0.28 | 1.88 | 1.88 | 95 | 1008.3 |
| 20260506023610 | 8 | 288 | 0.0 | 0.0 | 0.30 | 1.88 | 1.88 | 95 | 1008.3 |
| 20260506023054 | 8 | 288 | 0.0 | 0.0 | 0.28 | 1.85 | 1.85 | 95 | 1008.3 |
| 20260506022559 | 8 | 288 | 0.0 | 0.0 | 0.30 | 1.85 | 1.85 | 95 | 1008.1 |
| 20260506022045 | 8 | 288 | 0.0 | 0.0 | 0.30 | 1.83 | 1.83 | 95 | 1008.2 |
| 20260506021614 | 8 | 288 | 0.0 | 0.0 | 0.28 | 1.80 | 1.80 | 95 | 1008.2 |
| 20260506021059 | 8 | 288 | 0.0 | 0.0 | 0.28 | 1.78 | 1.78 | 95 | 1008.1 |
| 20260506020547 | 8 | 288 | 0.0 | 0.0 | 0.28 | 1.75 | 1.75 | 95 | 1008.1 |
| 20260506020119 | 8 | 288 | 0.0 | 0.0 | 0.25 | 1.73 | 1.73 | 95 | 1008.1 |
| 20260506015603 | 8 | 288 | 0.0 | 0.0 | 0.23 | 1.68 | 1.68 | 95 | 1008.1 |
| 20260506015117 | 8 | 288 | 0.0 | 0.0 | 0.20 | 1.65 | 1.65 | 95 | 1008.0 |
| 20260506014601 | 8 | 288 | 0.0 | 0.0 | 0.20 | 1.63 | 1.63 | 95 | 1007.9 |
| 20260506014046 | 8 | 288 | 0.0 | 0.0 | 0.18 | 1.60 | 1.60 | 95 | 1007.8 |
| 20260506013550 | 8 | 288 | 0.0 | 0.0 | 0.15 | 1.57 | 1.57 | 95 | 1007.7 |
| 20260506013054 | 8 | 288 | 0.0 | 0.0 | 0.15 | 1.57 | 1.57 | 95 | 1007.7 |
| 20260506012559 | 8 | 288 | 0.0 | 0.0 | 0.13 | 1.55 | 1.55 | 95 | 1007.8 |
| 20260506012043 | 8 | 288 | 0.0 | 0.0 | 0.13 | 1.52 | 1.52 | 95 | 1007.7 |
| 20260506011550 | 8 | 288 | 0.0 | 0.0 | 0.13 | 1.52 | 1.52 | 94 | 1007.6 |
| 20260506011055 | 8 | 288 | 0.0 | 0.0 | 0.10 | 1.50 | 1.50 | 94 | 1007.5 |
| 20260506010541 | 8 | 288 | 0.0 | 0.0 | 0.10 | 1.47 | 1.47 | 94 | 1007.4 |
| 20260506010048 | 8 | 288 | 0.0 | 0.0 | 0.10 | 1.47 | 1.47 | 94 | 1007.2 |
| 20260506005554 | 8 | 288 | 0.0 | 0.0 | 0.10 | 1.45 | 1.45 | 94 | 1007.2 |
| 20260506005059 | 8 | 288 | 0.0 | 0.0 | 0.10 | 1.45 | 1.45 | 94 | 1007.3 |
| 20260506004543 | 8 | 288 | 0.0 | 0.0 | 0.08 | 1.42 | 1.42 | 94 | 1007.3 |
| 20260506004050 | 8 | 288 | 0.0 | 0.0 | 0.10 | 1.42 | 1.42 | 94 | 1007.3 |
| 20260506003557 | 8 | 288 | 0.0 | 0.0 | 0.10 | 1.42 | 1.42 | 94 | 1007.4 |
| 20260506003042 | 8 | 288 | 0.0 | 0.0 | 0.10 | 1.42 | 1.42 | 94 | 1007.4 |
| 20260506002547 | 8 | 288 | 0.0 | 0.0 | 0.10 | 1.42 | 1.42 | 94 | 1007.4 |
| 20260506002052 | 8 | 288 | 0.0 | 0.0 | 0.08 | 1.40 | 1.40 | 94 | 1007.3 |
| 20260506001559 | 9 | 288 | 0.0 | 0.0 | 0.10 | 1.40 | 1.40 | 94 | 1007.4 |
| 20260506001045 | 9 | 288 | 0.0 | 0.0 | 0.10 | 1.40 | 1.40 | 94 | 1007.4 |
| 20260506000547 | 9 | 288 | 0.0 | 0.0 | 0.10 | 1.37 | 1.37 | 94 | 1007.5 |
| 20260506000119 | 9 | 288 | 0.0 | 0.0 | 0.10 | 1.37 | 1.37 | 94 | 1007.5 |
| 20260505235543 | 9 | 288 | 0.0 | 0.0 | 0.08 | 1.35 | 1.35 | 94 | 1007.4 |
| 20260505235050 | 9 | 288 | 0.0 | 0.0 | 0.08 | 1.35 | 1.35 | 94 | 1007.4 |
| 20260505234555 | 9 | 288 | 0.0 | 3.2 | 0.08 | 1.35 | 1.35 | 94 | 1007.3 |
| 20260505234100 | 9 | 288 | 0.0 | 3.2 | 0.08 | 1.35 | 1.35 | 94 | 1007.2 |
| 20260505233544 | 10 | 288 | 0.0 | 1.6 | 0.08 | 1.32 | 1.32 | 94 | 1007.1 |
| 20260505233050 | 10 | 288 | 0.0 | 3.2 | 0.08 | 1.32 | 1.32 | 94 | 1007.2 |
| 20260505232556 | 10 | 288 | 0.0 | 3.2 | 0.08 | 1.32 | 1.32 | 94 | 1007.1 |
| 20260505232103 | 10 | 288 | 0.0 | 3.2 | 0.10 | 1.32 | 1.32 | 94 | 1007.1 |
| 20260505231547 | 10 | 288 | 0.0 | 4.8 | 0.08 | 1.30 | 1.30 | 94 | 1007.1 |
| 20260505231053 | 9 | 288 | 0.0 | 4.8 | 0.10 | 1.30 | 1.30 | 94 | 1007.0 |
| 20260505230543 | 9 | 288 | 0.0 | 3.2 | 0.10 | 1.27 | 1.27 | 94 | 1007.1 |
| 20260505230048 | 10 | 288 | 0.0 | 6.4 | 0.13 | 1.27 | 1.27 | 94 | 1007.0 |
| 20260505225552 | 10 | 288 | 1.6 | 6.4 | 0.15 | 1.27 | 1.27 | 94 | 1007.1 |
| 20260505225058 | 10 | 288 | 0.0 | 3.2 | 0.23 | 1.27 | 1.27 | 94 | 1007.1 |
| 20260505224545 | 10 | 288 | 1.6 | 3.2 | 0.25 | 1.27 | 1.27 | 94 | 1007.1 |
| 20260505224051 | 10 | 288 | 0.0 | 3.2 | 0.28 | 1.27 | 1.27 | 94 | 1007.0 |
| 20260505223622 | 10 | 288 | 0.0 | 0.0 | 0.30 | 1.27 | 1.27 | 94 | 1006.8 |
| 20260505223108 | 10 | 288 | 0.0 | 0.0 | 0.33 | 1.24 | 1.24 | 94 | 1006.9 |
| 20260505222552 | 10 | 288 | 0.0 | 0.0 | 0.38 | 1.24 | 1.24 | 94 | 1007.2 |
| 20260505222058 | 10 | 288 | 0.0 | 0.0 | 0.38 | 1.22 | 1.22 | 94 | 1007.2 |
| 20260505221546 | 10 | 288 | 0.0 | 0.0 | 0.43 | 1.22 | 1.22 | 94 | 1007.2 |
| 20260505221053 | 10 | 288 | 0.0 | 1.6 | 0.46 | 1.19 | 1.19 | 94 | 1007.2 |
| 20260505220559 | 10 | 288 | 0.0 | 1.6 | 0.48 | 1.17 | 1.17 | 94 | 1007.3 |
| 20260505220111 | 10 | 288 | 0.0 | 3.2 | 0.46 | 1.14 | 1.14 | 94 | 1007.2 |
| 20260505215556 | 10 | 288 | 0.0 | 3.2 | 0.46 | 1.12 | 1.12 | 93 | 1007.1 |
| 20260505215043 | 10 | 288 | 0.0 | 3.2 | 0.41 | 1.04 | 1.04 | 94 | 1007.2 |
| 20260505214547 | 10 | 288 | 0.0 | 3.2 | 0.38 | 1.02 | 1.02 | 93 | 1007.0 |
| 20260505214049 | 10 | 288 | 0.0 | 6.4 | 0.38 | 0.99 | 0.99 | 93 | 1006.9 |
| 20260505213556 | 10 | 288 | 1.6 | 6.4 | 0.38 | 0.97 | 0.97 | 93 | 1006.8 |
| 20260505213042 | 10 | 330 | 0.0 | 3.2 | 0.33 | 0.91 | 0.91 | 93 | 1006.7 |
| 20260505212546 | 10 | 330 | 1.6 | 3.2 | 0.33 | 0.89 | 0.89 | 93 | 1006.7 |
| 20260505212056 | 11 | 330 | 0.0 | 0.0 | 0.30 | 0.84 | 0.84 | 93 | 1006.7 |
| 20260505211544 | 10 | 330 | 0.0 | 1.6 | 0.25 | 0.79 | 0.79 | 93 | 1006.8 |
| 20260505211049 | 10 | 330 | 0.0 | 3.2 | 0.20 | 0.74 | 0.74 | 93 | 1006.8 |
| 20260505210556 | 10 | 330 | 0.0 | 3.2 | 0.20 | 0.71 | 0.71 | 92 | 1006.7 |
| 20260505210043 | 11 | 330 | 0.0 | 1.6 | 0.18 | 0.69 | 0.69 | 92 | 1006.6 |
| 20260505205549 | 11 | 330 | 0.0 | 1.6 | 0.15 | 0.66 | 0.66 | 92 | 1006.5 |
| 20260505205120 | 11 | 330 | 0.0 | 3.2 | 0.15 | 0.64 | 0.64 | 92 | 1006.6 |
| 20260505204544 | 11 | 330 | 0.0 | 6.4 | 0.15 | 0.64 | 0.64 | 92 | 1006.6 |
| 20260505204052 | 10 | 330 | 1.6 | 6.4 | 0.13 | 0.61 | 0.61 | 92 | 1006.6 |
| 20260505203557 | 10 | 330 | 1.6 | 4.8 | 0.13 | 0.58 | 0.58 | 92 | 1006.5 |
| 20260505203044 | 11 | 330 | 1.6 | 8.0 | 0.13 | 0.58 | 0.58 | 92 | 1006.5 |
| 20260505202550 | 11 | 330 | 4.8 | 8.0 | 0.13 | 0.56 | 0.56 | 92 | 1006.5 |
| 20260505202055 | 11 | 330 | 0.0 | 4.8 | 0.15 | 0.53 | 0.53 | 92 | 1006.8 |
| 20260505201556 | 11 | 330 | 0.0 | 3.2 | 0.18 | 0.53 | 0.53 | 92 | 1006.8 |
| 20260505201109 | 11 | 330 | 0.0 | 4.8 | 0.20 | 0.53 | 0.53 | 92 | 1006.7 |
| 20260505200555 | 11 | 330 | 0.0 | 6.4 | 0.20 | 0.51 | 0.51 | 92 | 1006.8 |
| 20260505200042 | 11 | 330 | 1.6 | 6.4 | 0.23 | 0.51 | 0.51 | 92 | 1006.9 |
| 20260505195547 | 11 | 330 | 0.0 | 4.8 | 0.23 | 0.51 | 0.51 | 92 | 1007.2 |
| 20260505195053 | 11 | 330 | 0.0 | 1.6 | 0.23 | 0.48 | 0.48 | 92 | 1007.3 |
| 20260505194558 | 11 | 330 | 0.0 | 4.8 | 0.23 | 0.48 | 0.48 | 92 | 1007.2 |
| 20260505194045 | 11 | 330 | 1.6 | 6.4 | 0.28 | 0.48 | 0.48 | 92 | 1007.2 |
| 20260505193552 | 11 | 330 | 1.6 | 6.4 | 0.28 | 0.46 | 0.46 | 92 | 1007.3 |
| 20260505193100 | 12 | 329 | 0.0 | 3.2 | 0.28 | 0.46 | 0.46 | 92 | 1007.3 |
| 20260505192546 | 12 | 330 | 0.0 | 3.2 | 0.25 | 0.43 | 0.43 | 92 | 1007.3 |
| 20260505192117 | 12 | 330 | 0.0 | 3.2 | 0.25 | 0.41 | 0.41 | 92 | 1007.3 |
| 20260505191542 | 12 | 330 | 1.6 | 3.2 | 0.20 | 0.36 | 0.36 | 92 | 1007.2 |
| 20260505191048 | 12 | 330 | 1.6 | 3.2 | 0.20 | 0.33 | 0.33 | 92 | 1007.0 |
| 20260505190554 | 12 | 330 | 0.0 | 1.6 | 0.18 | 0.30 | 0.30 | 91 | 1006.8 |
| 20260505190041 | 12 | 330 | 0.0 | 3.2 | 0.18 | 0.28 | 0.28 | 92 | 1006.7 |
| 20260505185541 | 13 | 330 | 1.6 | 3.2 | 0.20 | 0.28 | 0.28 | 91 | 1006.7 |
| 20260505185046 | 13 | 330 | 0.0 | 1.6 | 0.20 | 0.25 | 0.25 | 91 | 1006.7 |
| 20260505184553 | 13 | 330 | 0.0 | 3.2 | 0.23 | 0.25 | 0.25 | 91 | 1006.7 |
| 20260505184059 | 13 | 330 | 0.0 | 6.4 | 0.18 | 0.20 | 0.20 | 91 | 1006.8 |
| 20260505183547 | 13 | 330 | 0.0 | 6.4 | 0.18 | 0.18 | 0.18 | 90 | 1006.7 |
| 20260505183054 | 13 | 330 | 0.0 | 4.8 | 0.18 | 0.18 | 0.18 | 90 | 1006.6 |
| 20260505182559 | 13 | 330 | 0.0 | 8.0 | 0.18 | 0.18 | 0.18 | 90 | 1006.6 |
| 20260505182044 | 13 | 329 | 3.2 | 8.0 | 0.15 | 0.15 | 0.15 | 90 | 1006.5 |
| 20260505181612 | 13 | 329 | 1.6 | 4.8 | 0.15 | 0.15 | 0.15 | 89 | 1006.3 |
| 20260505181102 | 13 | 329 | 0.0 | 4.8 | 0.13 | 0.13 | 0.13 | 88 | 1006.3 |
| 20260505180545 | 13 | 329 | 0.0 | 4.8 | 0.13 | 0.13 | 0.13 | 87 | 1006.5 |
| 20260505180049 | 13 | 330 | 0.0 | 1.6 | 0.10 | 0.10 | 0.10 | 86 | 1006.4 |
| 20260505175555 | 14 | 330 | 1.6 | 3.2 | 0.08 | 0.08 | 0.08 | 85 | 1006.3 |
| 20260505175058 | 14 | 329 | 0.0 | 3.2 | 0.05 | 0.05 | 0.05 | 85 | 1006.5 |
| 20260505174542 | 15 | 330 | 0.0 | 1.6 | 0.05 | 0.05 | 0.05 | 84 | 1006.2 |
| 20260505174048 | 15 | 330 | 0.0 | 3.2 | 0.03 | 0.03 | 0.03 | 84 | 1006.4 |
| 20260505173551 | 15 | 330 | 1.6 | 3.2 | 0.00 | 0.00 | 0.00 | 82 | 1006.3 |
| 20260505173100 | 15 | 330 | 0.0 | 4.8 | 0.00 | 0.00 | 0.00 | 81 | 1006.3 |
| 20260505172544 | 15 | 330 | 0.0 | 4.8 | 0.00 | 0.00 | 0.00 | 80 | 1006.3 |
| 20260505172046 | 15 | 330 | 0.0 | 6.4 | 0.00 | 0.00 | 0.00 | 79 | 1006.3 |
| 20260505171617 | 15 | 330 | 1.6 | 6.4 | 0.00 | 0.00 | 0.00 | 79 | 1006.3 |
| 20260505171100 | 15 | 330 | 1.6 | 6.4 | 0.00 | 0.00 | 0.00 | 80 | 1006.3 |
| 20260505170545 | 15 | 330 | 1.6 | 6.4 | 0.00 | 0.00 | 0.00 | 80 | 1006.4 |
| 20260505170051 | 15 | 330 | 1.6 | 4.8 | 0.00 | 0.00 | 0.00 | 79 | 1006.5 |
| 20260505165557 | 16 | 330 | 1.6 | 9.7 | 0.00 | 0.00 | 0.00 | 79 | 1006.5 |
| 20260505165103 | 16 | 330 | 3.2 | 9.7 | 0.00 | 0.00 | 0.00 | 78 | 1006.5 |
| 20260505164549 | 16 | 240 | 1.6 | 6.4 | 0.00 | 0.00 | 0.00 | 78 | 1006.5 |
| 20260505164117 | 16 | 240 | 1.6 | 9.7 | 0.00 | 0.00 | 0.00 | 78 | 1006.5 |
| 20260505163600 | 16 | 242 | 1.6 | 19.3 | 0.00 | 0.00 | 0.00 | 78 | 1006.4 |
| 20260505163111 | 16 | 242 | 4.8 | 19.3 | 0.00 | 0.00 | 0.00 | 77 | 1006.4 |
| 20260505162618 | 16 | 232 | 3.2 | 8.0 | 0.00 | 0.00 | 0.00 | 77 | 1006.3 |
| 20260505162104 | 16 | 232 | 1.6 | 8.0 | 0.00 | 0.00 | 0.00 | 77 | 1006.3 |
| 20260505161548 | 16 | 224 | 1.6 | 3.2 | 0.00 | 0.00 | 0.00 | 77 | 1006.5 |
| 20260505161058 | 16 | 224 | 1.6 | 8.0 | 0.00 | 0.00 | 0.00 | 77 | 1006.4 |
| 20260505160543 | 16 | 224 | 3.2 | 25.7 | 0.00 | 0.00 | 0.00 | 76 | 1006.4 |
| 20260505160108 | 16 | 224 | 3.2 | 25.7 | 0.00 | 0.00 | 0.00 | 76 | 1006.3 |